Retour au catalogue

STARLINK-4309

ActifCommunicationsSSO
NORAD 53066·PAYLOAD·🇺🇸 United States

Lancé Jul 11, 2022 depuis Vandenberg Space Force Base

Loading…

Prochains Passages (prochaines 24 heures)

TLE

FraisSource: CelesTrak SupGP

Époque: Sep 15, 2026, 02:44 UTC

1 53066C 22077Z   26258.11437500 -.00057708  00000+0 -17915-2 0  2583
2 53066  97.2851  72.9578 0001613  93.6265 258.3057 15.33466546    18

Suivez STARLINK-4309 en temps réel avec AllMySat

Download on the App Store